Zurück zum Katalog

CZ-3B DEB

AktivGTO
NORAD 40845·DEBRIS·🇨🇳 China

Gestartet Dec 19, 2011 von Xichang Satellite Launch Center

Loading…

TLE

VeraltetSource: Space-Track

Epoche: Aug 23, 2026, 16:24 UTC

1 40845U 11077AA  26235.68343645 -.00000208  00000-0  17056-2 0  9996
2 40845  21.8289 114.1668 7376069 231.1078  36.8564  2.07716817 93722

Verfolge CZ-3B DEB in Echtzeit mit AllMySat

Download on the App Store